Hourly Data Report for July 28, 2016

TORONTO CITY
ONTARIO

43°40'00.000" N
79°24'00.000" W
112.50 m
6158355
71508
XTO

Download Data

Hourly Data (July 2016)
Hourly Data Report for July 28, 2016
TIME
LST
Temp Definition
°C
Dew Point Definition
°C
Rel Hum Definition
%
Precip. Amount Definition
mm

Wind Dir Definition
10's deg

Wind Spd Definition
km/h
Visibility Definition
km
Stn Press Definition
kPa
Hmdx Definition


Wind Chill Definition


Weather Definition


00:00 21.6 20.0 91 0.0 LegendMM LegendMM   99.93 29   LegendNANA
01:00 21.6 19.2 86 0.0 LegendMM LegendMM   99.93 29   LegendNANA
02:00 21.9 18.0 79 0.0 LegendMM LegendMM   99.89 28   LegendNANA
03:00 23.0 18.6 76 0.0 LegendMM LegendMM   99.90 29   LegendNANA
04:00 22.8 18.9 79 0.0 LegendMM LegendMM   99.92 29   LegendNANA
05:00 23.4 17.1 68 0.0 LegendMM LegendMM   99.95 29   LegendNANA
06:00 22.4 18.8 80 0.0 LegendMM LegendMM   99.99 29   LegendNANA
07:00 23.7 16.9 66 0.0 LegendMM LegendMM   100.02 29   LegendNANA
08:00 24.9 16.9 61 0.0 LegendMM LegendMM   100.02 30   LegendNANA
09:00 26.0 17.2 58 0.0 LegendMM LegendMM   100.00 31   LegendNANA
10:00 26.7 16.1 52 0.0 LegendMM LegendMM   99.96 31   LegendNANA
11:00 27.5 18.5 58 0.0 LegendMM LegendMM   99.97 34   LegendNANA
12:00 27.3 17.9 57 0.0 LegendMM LegendMM   99.97 33   LegendNANA
13:00 27.5 15.0 46 0.0 LegendMM LegendMM   99.94 31   LegendNANA
14:00 28.2 15.8 47 0.0 LegendMM LegendMM   99.88 33   LegendNANA
15:00 28.4 15.7 46 0.0 LegendMM LegendMM   99.85 33   LegendNANA
16:00 27.9 15.0 45 0.0 LegendMM LegendMM   99.81 32   LegendNANA
17:00 27.5 14.7 46 0.0 LegendMM LegendMM   99.82 31   LegendNANA
18:00 27.5 14.4 45 0.0 LegendMM LegendMM   99.83 31   LegendNANA
19:00 27.1 13.4 43 0.0 LegendMM LegendMM   99.87 30   LegendNANA
20:00 26.6 14.1 46 0.0 LegendMM LegendMM   99.89 30   LegendNANA
21:00 25.5 15.1 52 0.0 LegendMM LegendMM   99.95 30   LegendNANA
22:00 24.1 15.3 58 0.0 LegendMM LegendMM   99.96 28   LegendNANA
23:00 22.5 16.5 69 0.0 LegendMM LegendMM   99.94 27   LegendNANA

Notes on Data Quality.

Legend

  • E = Estimated
  • M = Missing
  • NA = Not Available*
  • [empty] = Indicates an unobserved value
Date modified: